Regional Weather Roundup
Issued by NWS

Home | Current Version | Previous Version | Graphics & Text | Print | Product List | Glossary Off
Versions: 1 2 3 4 5 6 7 8 9 10 11 12 13 14 15 16 17 18 19 20 21 22 23 24 25 26 27 28 29 30 31 32 33 34 35 36 37 38 39 40 41 42 43 44 45 46 47 48 49 50

000
ASUS43 KLSX 281610
RWRMO

WEATHER SUMMARY FOR MISSOURI
NATIONAL WEATHER SERVICE SPRINGFIELD MO
1100 AM CDT SUN AUG 28 2016

NOTE: "FAIR" INDICATES FEW OR NO CLOUDS BELOW 12,000 FEET WITH NO
       SIGNIFICANT WEATHER AND/OR OBSTRUCTIONS TO VISIBILITY.
       CURRENT SKY AND/OR WEATHER CONDITIONS ARE NOT AVAILABLE FOR
       CHILLICOTHE AND FARMINGTON.

MOZ001>031-035>038-043-044-053-054-281700-
...NORTHERN AND WESTERN MISSOURI...

CITY           SKY/WX    TMP DP  RH WIND       PRES   REMARKS
KANSAS CTY INT MOSUNNY   84  72  67 S6        30.14S
KANSAS C DTWN  SUNNY     86  71  60 S5        30.12S HX  91
LEE`S SUMMIT   SUNNY     83  72  69 VRB5      30.15S
ST JOSEPH      SUNNY     83  73  72 VRB3      30.12S
KIRKSVILLE     SUNNY     83  73  72 CALM      30.17S

$$
MOZ066>068-077>081-088>096-101>105-281700-
...SOUTHWEST MISSOURI...

CITY           SKY/WX    TMP DP  RH WIND       PRES   REMARKS
SPRINGFIELD    SUNNY     85  69  58 SE8       30.17S
JOPLIN         MOSUNNY   83  72  69 S3        30.15S
BRANSON        PTSUNNY   82  73  74 S6        30.20R

$$
MOZ032>034-039>042-045>050-055>058-069>072-281700-
...CENTRAL MISSOURI...

CITY           SKY/WX    TMP DP  RH WIND       PRES   REMARKS
COLUMBIA       MOSUNNY   83  75  77 S3        30.17R HX  90
JEFFERSON CITY MOSUNNY   83  75  77 VRB3      30.15S HX  90
ROLLA          SUNNY     82  72  71 SW3       30.18S
SEDALIA        SUNNY     86  73  65 CALM      30.17S HX  93
WHITEMAN AFB   MOSUNNY   83  77  80 SW3       30.14S HX  92
OSAGE BEACH    SUNNY     84  75  74 SE5       30.17S HX  92

$$
MOZ051-052-059>065-281700-
...EAST CENTRAL MISSOURI...

CITY           SKY/WX    TMP DP  RH WIND       PRES   REMARKS
ST LOUIS INTL  MOSUNNY   90  70  51 CALM      30.18R HX  95
SPIRIT OF STL  MOSUNNY   87  75  67 NW5       30.16R HX  96
ST CHARLES     SUNNY     85  74  69 VRB3      30.16R HX  92

$$
MOZ072>076-082>087-097>100-106>115-281700-
...SOUTH CENTRAL AND SOUTHEAST MISSOURI...

CITY           SKY/WX    TMP DP  RH WIND       PRES   REMARKS
CAPE GIRARDEAU SUNNY     87  73  62 N3        30.16R HX  94
FARMINGTON     SUNNY     86  71  60 SE5       30.20S HX  91
POPLAR BLUFF   SUNNY     86  76  71 NE5       30.15S HX  96
WEST PLAINS    MOSUNNY   84  68  58 E5        30.21S

$$



USA.gov is the U.S. government's official web portal to all federal, state and local government web resources and services.